SCP
0 0 0 0 0 0 0 0 0 0 0 0 0 0 0 0 0 0 0 0 0 0 0 0 0 0 0 0 0 0 0 0 0 0 0 0 0 0 0 0 0 0 0 0 0 0 0 0 0 0 0 0 0 0
0 0 0 0 0 0 0 0 0 0 0 0 0 0 0 0 0 0 0 0 0 0 0 0 0 0 0 0 0 0 0 0 0 0 0 0 0 0 0 0 0 0 0 0 0 0 0 0 0 0 0 0 0 0
0 0 0 0 0 0 0 0 0 0 0 0 0 0 0 0 0 0 0 0 0 0 0 0 0 0 0 0 0 0 0 0 0 0 0 0 0 0 0 0 0 0 0 0 0 0 0 0 0 0 0 0 0 0
0 0 0 0 0 0 0 0 0 0 0 0 0 0 0 0 0 0 0 0 0 0 0 0 0 0 0 0 0 0 0 0 0 0 0 0 0 0 0 0 0 0 0 0 0 0 0 0 0 0 0 0 0 0
0 0 0 0 0 0 0 0 0 0 0 0 0 0 0 0 0 0 0 0 0 0 0 0 0 0 0 0 0 0 0 0 0 0 0 0 0 0 0 0 0 0 0 0 0 0 0 0 0 0 0 0 0 0
0 0 0 0 0 0 0 0 0 0 0 0 0 0 0 0 0 0 0 0 0 0 0 0 0 0 0 0 0 0 0 0 0 0 0 0 0 0 0 0 0 0 0 0 0 0 0 0 0 0 0 0 0 0
0 0 0 0 0 0 0 0 0 -0 0 0 0 0 0 0 0 0 0 0 0 0 0 0 0 0 0 0 0 0 0 0 0 0 0 0 0 0 0 0 0 0 0 0 0 0 0 0 0 0 0 0 0 0
0 0 0 0 0 0 0 -0 0 0 0 0 0 0 -0 0 0 0 0 0 0 0 0 0 0 0 0 0 0 0 0 0 0 0 0 0 0 0 0 0 0 0 0 0 0 0 0 0 0 0 0 0 0 0
0 0 0 0 0 0 -0 0 0 0 0 0 0 0 0 0 0 0 0 0 0 0 0 0 0 0 0 0 0 0 0 0 0 0 0 0 0 0 0 0 0 -0 0 0 0 0 0 0 0 0 0 0 0 0
0 -0 0 0 0 -0 0 0 0 0 0 0 0 0 0 0 0 0 0 0 0 0 0 0 0 0 0 0 0 0 0 0 0 0 0 0 0 0 0 0 0 0 0 0 0 0 0 0 0 0 0 0 0 0
-0 0 0 0 -0 0 -0 0 0 0 0 0 0 0 0 0 0 0 0 0 0 0 0 0 0 0 0 0 0 0 0 0 0 0 0 0 0 0 0 0 0 0 0 0 0 0 0 0 0 0 0 0 0 0
0 0 0 0 0 -0 -0 -0 0 0 0 0 0 0 0 0 0 0 0 0 0 0 0 0 0 0 0 0 0 0 0 0 0 0 0 0 0 0 0 0 0 0 0 0 0 0 0 0 0 0 0 0 0 0
0 0 0 -0 -0 -0 0 0 0 0 0 0 0 0 0 0 0 0 0 0 0 0 0 0 0 0 0 0 0 0 0 0 0 0 0 0 0 0 0 0 0 0 0 0 0 0 0 0 0 0 0 0 -0 0
-0 -0 -0 0 0 0 0 0 0 0 0 0 0 0 0 0 -0 0 0 0 0 0 0 0 0 0 0 0 0 0 0 0 0 0 0 0 0 0 0 0 0 0 0 0 0 0 0 0 0 0 0 0 0 0
-0 0 -0 -0 -0 -0 -0 0 0 0 0 0 0 0 0 0 0 0 0 0 0 0 0 0 0 0 0 0 0 0 0 0 0 0 0 0 0 0 0 0 0 0 0 0 0 0 0 0 0 0 0 0 0 0
0 0 0 0 -0 -0 -0 -0 0 0 0 0 0 0 0 0 0 0 0 0 0 0 0 0 0 0 0 0 0 0 0 0 0 0 0 0 0 0 0 0 0 0 0 0 0 0 0 0 0 0 -0 0 0 0
0 0 0 -0 -0 -0 0 0 0 0 0 0 0 0 0 0 0 0 0 0 0 0 0 0 0 0 0 0 0 0 0 0 0 0 0 0 0 0 0 0 0 0 0 0 0 0 0 0 0 0 0 0 0 0
0 0 -0 -0 -0 0 0 0 0 0 0 0 0 0 0 0 0 0 0 0 0 0 0 0 0 0 0 0 0 0 0 0 0 0 0 0 0 0 0 0 0 0 0 0 0 0 0 0 0 0 0 0 0 0
0 0 -0 -0 0 0 0 0 0 -0 0 0 0 0 0 0 0 0 0 0 0 0 0 0 0 0 0 0 0 0 0 0 0 0 0 0 0 0 0 0 0 0 0 0 0 0 0 0 0 0 0 0 0 0
0 0 0 -0 0 0 0 0 0 0 0 0 0 0 0 0 0 0 0 0 0 0 0 0 0 0 0 0 0 0 0 0 0 0 0 0 0 0 0 0 0 0 0 0 0 0 0 0 0 0 0 0 0 0
0 0 0 0 0 0 0 0 0 0 0 0 0 0 0 0 0 0 0 0 0 0 0 0 0 0 0 0 0 0 0 0 0 0 0 0 0 0 0 0 0 0 0 0 0 0 0 0 0 0 0 0 0 0
0 0 0 0 0 0 0 0 0 0 0 0 0 0 0 0 0 0 0 0 0 0 0 0 0 0 0 0 0 0 0 0 0 0 0 0 0 0 0 0 0 0 0 0 0 0 0 0 0 0 0 0 0 0
0 0 0 0 0 0 0 0 0 0 0 0 0 0 0 0 0 0 0 0 0 0 0 0 0 0 0 0 0 0 0 0 0 0 0 0 0 0 0 0 0 0 0 0 0 0 0 0 0 0 0 0 0 0
0 0 0 0 0 0 0 0 0 0 0 0 0 0 0 0 0 0 0 0 0 0 0 0 0 0 0 0 0 0 0 0 0 0 0 0 0 0 0 0 0 0 0 0 0 0 0 0 0 0 0 0 0 0
0 0 0 0 0 0 0 0 0 0 0 0 -0 -0 -0 -0 -0 -0 -0 0 0 0 0 0 0 0 0 0 0 0 0 0 0 0 0 0 0 -0 -0 -0 0 0 0 0 0 0 0 0 0 0 0 0 0 0
0 0 0 0 0 0 0 0 0 0 0 0 -0 -0 -0 -0 -0 -0 -0 0 0 0 0 0 0 0 0 0 0 0 0 0 0 0 0 0 0 0 0 0 0 0 0 0 0 0 0 0 0 0 0 0 0 0
0 0 0 0 0 0 0 0 0 0 0 0 0 0 0 0 -0 -0 -0 0 0 0 0 0 0 0 0 0 0 0 0 0 0 0 0 0 0 0 0 0 0 0 0 0 0 0 0 0 0 0 0 0 0 0
0 0 0 0 0 0 0 0 0 0 0 0 0 0 0 0 0 0 0 0 -0 -0 0 0 0 0 0 0 0 0 0 0 0 0 0 0 0 0 0 0 0 0 0 0 0 0 0 0 0 0 0 0 0 0
0 0 0 0 0 0 0 0 0 0 0 0 0 0 0 0 0 0 0 0 0 -0 -0 0 0 0 0 0 0 0 0 0 0 0 0 0 0 0 0 0 0 0 -0 -0 -0 -0 -0 -0 -0 -0 -0 0 0 0
0 0 0 0 0 0 0 0 0 0 0 0 -0 0 0 0 0 0 0 0 0 0 0 0 0 0 0 0 0 0 0 0 -0 0 -0 -0 0 -0 -0 -0 0 0 0 0 0 0 0 0 0 0 0 0 0 0
0 0 0 0 0 0 0 0 0 0 0 0 0 -0 0 0 0 0 0 0 0 0 0 0 0 0 0 0 0 0 0 0 0 0 0 0 0 0 0 0 0 0 0 0 0 0 0 0 0 0 0 0 0 0
0 0 0 0 0 0 0 0 0 0 0 0 0 0 0 0 0 0 0 0 0 0 0 0 0 0 0 0 0 0 0 0 0 0 0 0 0 0 0 0 0 0 0 0 0 0 0 0 0 0 0 0 0 0
0 0 0 0 0 0 0 0 0 0 0 0 0 0 0 0 0 0 0 0 0 0 0 0 0 0 0 0 0 0 0 0 0 0 0 0 0 0 0 0 0 0 0 0 0 0 0 0 0 0 0 0 0 0
Wind_Speed_500mb
34 34 34 36 39 43 46 47 50 52 55 58 59 57 61 72 77 82 86 77 83 46 35 43 54 31 11 26 9 12 14 9 12 15 13 9 10 15 6 10 19 26 22 18 12 22 41 23 14 39 18 24 15 27
37 35 33 34 38 42 47 51 53 56 58 64 70 72 74 75 80 82 84 83 86 47 22 54 51 56 56 55 41 44 3 13 22 8 9 6 8 7 14 25 7 15 19 19 29 28 10 34 27 65 41 36 28 34
41 38 36 35 37 40 37 41 46 54 60 67 76 84 91 87 84 88 97 76 74 61 47 53 55 59 64 58 37 22 11 20 17 17 7 5 10 13 15 28 8 9 9 18 14 45 35 59 53 35 34 63 55 54
42 39 37 36 38 40 37 39 44 47 55 63 67 70 78 89 89 91 103 90 85 35 12 18 59 81 78 70 73 64 41 22 14 22 7 8 9 17 12 16 26 18 20 20 22 47 21 30 45 65 57 50 48 50
44 39 38 35 34 36 38 43 43 50 49 45 51 53 59 72 81 88 97 100 102 66 8 12 42 54 60 75 78 73 65 57 31 10 6 5 4 3 3 1 16 14 16 21 28 38 15 34 62 59 51 52 63 74
40 39 36 33 34 35 41 38 42 45 42 31 25 37 55 62 70 74 71 102 99 96 26 8 15 45 71 76 74 71 64 50 44 18 14 15 18 12 7 6 13 42 56 58 25 58 60 31 17 40 59 60 65 60
39 35 33 33 33 35 33 38 37 34 31 28 27 28 41 53 65 77 11 30 106 100 28 5 5 15 42 52 53 54 64 40 41 15 10 6 7 14 5 12 12 36 37 37 53 60 56 46 36 48 56 55 47 44
34 31 31 31 29 30 31 25 24 20 21 23 20 21 18 24 51 43 33 26 91 85 25 9 5 10 36 19 13 29 27 35 22 24 8 3 1 11 14 13 66 78 78 79 73 71 68 65 66 64 68 71 69 68
31 32 31 30 27 26 24 24 22 17 19 22 22 21 21 22 24 34 64 31 72 28 10 6 13 10 30 11 16 23 22 10 18 13 11 15 9 12 15 22 55 62 40 42 54 67 71 78 85 67 64 63 63 68
31 30 31 30 27 29 25 30 27 25 21 21 21 9 8 8 26 39 34 32 30 19 11 5 15 6 26 11 5 9 13 6 7 9 12 9 13 36 51 60 70 81 91 69 61 52 59 72 82 85 95 97 88 91
27 30 30 28 29 28 29 24 17 15 7 4 7 7 17 10 42 37 9 10 9 8 21 16 15 11 25 11 8 13 6 7 8 10 13 10 6 22 78 83 85 88 88 83 74 80 79 85 80 80 84 94 99 94
29 28 28 29 29 25 22 19 17 9 2 3 11 15 5 7 4 6 8 8 8 11 9 14 16 20 25 18 7 8 9 4 11 8 8 5 12 66 78 79 80 84 90 86 62 71 89 97 96 87 87 93 100 96
16 24 31 31 31 28 29 30 20 14 11 12 6 5 4 4 5 9 9 2 6 3 17 20 7 24 14 16 5 7 11 12 9 7 10 11 22 20 33 49 59 57 62 70 70 60 72 88 95 97 103 104 93 90
19 18 19 27 34 37 35 32 25 22 10 8 5 8 8 5 6 3 6 3 6 10 9 9 6 7 9 6 7 11 6 9 9 10 15 16 15 22 26 33 43 54 54 59 61 59 65 74 82 82 84 82 76 72
20 22 31 28 30 34 32 29 34 33 19 7 2 8 2 1 6 7 7 4 20 13 7 5 8 6 4 8 7 8 8 9 11 15 16 14 30 33 33 35 39 47 50 55 56 57 58 60 67 73 66 66 60 61
10 23 21 17 19 27 14 17 36 22 11 9 14 4 7 5 6 12 19 8 20 20 8 7 6 8 8 8 7 14 15 15 9 3 19 36 37 37 36 35 37 42 46 50 51 50 53 53 54 60 59 56 57 58
25 13 13 25 24 12 22 20 9 14 11 9 4 14 9 12 4 2 9 17 22 14 3 4 10 11 2 6 6 1 9 2 11 28 30 30 36 39 40 40 38 38 42 42 44 45 47 47 48 49 49 46 46 48
24 14 29 34 14 12 17 12 12 11 9 9 6 6 20 13 5 9 12 18 9 6 8 2 6 3 5 13 4 4 6 26 20 22 29 31 35 34 34 39 38 36 38 38 39 41 40 38 39 41 40 38 39 41
21 30 31 25 13 6 8 9 9 8 9 11 17 14 13 17 24 15 7 10 15 11 9 7 10 3 3 1 4 15 24 22 27 40 34 25 31 32 33 33 35 35 33 33 32 33 32 31 35 33 30 33 37 41
24 37 37 37 4 7 10 10 9 15 5 8 9 9 10 9 7 21 29 20 14 10 11 8 2 2 6 16 22 29 30 26 29 31 26 20 27 28 28 29 30 30 27 25 22 21 20 21 24 26 27 30 37 44
19 40 49 30 8 11 12 9 12 11 16 10 17 5 10 14 12 16 17 18 16 9 5 7 13 21 20 21 19 22 20 17 17 15 23 26 21 22 22 20 18 18 16 17 12 7 11 12 13 20 26 30 35 40
32 41 26 15 7 9 13 13 15 16 11 13 8 6 7 4 5 11 11 21 9 9 11 18 25 25 25 17 14 13 12 9 10 10 10 12 10 11 16 16 11 10 9 7 3 5 6 8 12 19 28 35 39 42
37 27 10 6 8 11 5 6 7 7 7 3 7 5 5 4 5 7 6 8 6 19 18 19 19 12 18 15 9 9 7 6 8 9 12 13 15 18 19 20 18 19 22 23 19 17 20 22 26 31 37 40 45 50
24 8 14 13 20 3 5 9 8 8 8 5 5 5 4 3 3 5 5 4 12 23 22 19 17 8 6 8 13 15 12 10 12 12 14 16 21 26 26 28 28 30 30 28 26 29 31 32 35 41 47 52 55 59
8 21 16 13 20 10 11 7 9 8 5 4 6 3 2 6 4 5 4 7 19 27 28 22 14 14 10 6 10 14 13 11 15 18 20 21 23 24 27 28 30 31 27 28 32 35 37 36 38 40 44 47 50 53
16 14 10 3 8 8 2 6 6 3 3 6 3 5 2 5 6 5 3 17 19 22 27 24 21 14 11 10 10 10 11 12 15 18 21 18 17 16 19 20 23 29 31 32 32 32 33 34 36 37 42 42 42 42
12 8 12 16 5 8 9 8 5 5 8 5 4 4 4 7 3 3 11 17 18 21 18 16 16 13 11 11 13 15 19 18 21 25 22 19 18 19 19 20 23 26 25 26 26 28 30 31 31 32 33 34 34 35
9 10 8 14 14 15 7 6 7 4 3 5 2 8 6 3 4 8 8 18 16 12 11 11 16 15 14 17 20 20 18 18 18 17 16 20 21 20 20 20 20 20 20 21 24 24 24 24 24 26 26 27 28 28
12 8 6 10 9 12 7 3 2 4 4 1 3 5 5 6 6 6 9 12 12 11 8 6 7 13 18 17 13 13 14 13 12 15 16 17 16 18 16 16 15 15 14 14 15 17 18 18 20 20 20 19 19 19
9 11 9 6 9 10 14 12 9 13 19 19 17 30 28 26 32 30 25 18 15 14 12 11 10 9 10 12 17 19 20 19 17 17 16 16 16 14 13 12 11 11 12 12 12 14 16 15 15 14 14 13 13 12
10 11 13 13 7 14 31 41 45 44 42 41 39 28 15 11 23 41 43 35 26 18 14 12 11 14 15 14 14 14 16 19 17 17 17 17 16 14 12 11 9 8 8 9 9 10 10 9 9 8 7 6 5 4
14 11 7 6 2 13 5 2 4 7 6 6 8 7 7 6 8 11 32 35 32 29 22 20 19 11 11 15 18 19 16 15 13 13 13 13 14 13 10 9 8 7 6 5 5 5 5 4 4 3 1 1 2 3
8 10 10 8 5 3 2 3 4 5 8 6 7 7 8 7 7 12 19 32 36 36 32 18 18 22 12 10 15 16 16 14 12 12 12 11 11 11 11 10 9 9 9 8 8 7 7 7 8 9 9 9 11 11
Wind_Direction_500mb
263 269 271 273 266 263 263 263 263 263 261 259 260 259 247 240 233 227 227 226 210 224 230 213 219 198 165 183 178 143 123 179 175 196 189 166 203 208 179 178 167 176 175 202 210 219 254 145 134 201 235 224 245 243
257 264 269 274 276 270 262 260 262 261 260 258 258 257 253 245 236 227 224 226 213 219 220 221 222 230 232 228 217 186 225 150 171 184 185 166 212 186 203 233 153 202 197 186 189 217 216 188 216 220 237 261 256 243
250 255 262 270 278 280 272 269 270 267 266 267 265 259 252 248 238 226 221 220 211 216 231 227 222 223 223 224 230 190 216 193 190 189 153 199 229 172 204 228 140 251 188 217 175 242 243 245 237 249 249 246 253 258
248 246 258 264 273 280 277 282 284 284 277 272 268 263 249 238 233 226 219 215 207 199 227 224 226 224 233 232 231 230 226 206 215 209 216 208 207 193 220 241 203 202 150 221 246 254 279 269 252 248 250 257 262 260
242 246 259 265 270 280 283 281 282 288 280 280 265 253 242 232 231 224 222 217 215 203 175 200 217 220 225 225 226 228 233 226 220 237 240 240 239 179 201 68 223 192 195 204 233 230 238 263 255 258 266 267 261 261
236 245 256 263 270 279 284 286 283 291 288 275 276 260 236 228 218 214 217 217 213 216 214 196 220 210 212 214 215 215 217 216 215 223 248 234 233 191 229 227 235 238 231 237 247 255 264 272 282 274 261 266 272 272
232 242 252 260 268 278 283 287 288 287 290 280 284 283 229 217 210 208 212 196 206 204 200 153 201 185 198 201 200 205 212 211 216 226 222 198 203 212 226 248 281 292 297 277 272 275 270 265 263 269 270 279 279 278
232 244 252 263 271 277 287 283 295 291 283 279 281 290 250 236 211 201 165 153 183 187 203 174 128 146 162 157 172 188 189 206 220 227 259 200 341 210 247 234 254 259 262 269 275 278 281 281 274 271 271 272 273 273
236 244 253 262 262 272 281 272 276 279 294 302 297 298 284 226 227 215 218 190 185 190 164 143 146 177 166 144 147 167 176 183 192 207 207 184 215 221 209 215 238 248 240 251 267 274 274 274 274 281 276 270 269 269
240 246 253 253 258 263 268 274 269 272 279 294 295 278 264 210 227 166 151 156 180 209 156 117 133 153 168 139 155 134 179 202 187 229 148 225 230 236 241 250 258 264 271 271 259 265 267 267 268 270 269 271 272 275
252 253 250 248 257 253 276 266 288 271 267 246 238 248 271 232 164 173 181 155 160 187 160 150 164 134 192 168 158 189 170 166 196 243 162 203 244 228 240 241 247 253 260 263 259 261 264 269 270 271 273 276 275 275
253 248 247 252 241 253 254 259 259 245 150 324 306 295 254 260 210 193 152 135 154 179 172 163 181 159 160 154 111 187 172 172 213 134 148 218 241 232 238 239 244 247 254 262 263 260 261 261 262 264 268 268 271 273
256 247 247 248 243 233 243 258 221 264 276 240 254 283 357 298 280 208 153 178 151 200 175 161 175 145 133 168 108 176 177 200 124 157 204 223 234 225 239 243 246 252 264 272 279 274 267 267 267 266 264 264 266 269
252 261 236 242 240 248 251 249 238 210 174 205 149 259 183 251 233 11 356 11 5 339 349 112 127 149 138 146 149 165 168 132 156 164 219 231 7 317 292 279 278 276 278 285 288 289 282 277 272 269 262 261 260 258
272 252 243 236 246 248 246 247 230 218 183 138 104 227 165 257 33 353 15 17 359 327 325 139 88 101 166 162 176 118 157 197 192 209 224 7 339 326 313 303 298 293 290 290 293 293 287 281 276 273 266 257 253 249
234 201 221 236 225 246 293 159 175 163 87 75 48 48 348 83 344 15 7 356 1 345 305 248 172 157 207 158 125 204 150 204 223 329 330 337 328 321 322 315 304 302 303 299 297 294 290 283 277 273 267 258 250 244
192 204 190 197 209 148 139 156 110 63 78 73 51 46 84 76 101 45 0 343 345 355 51 320 197 185 67 152 215 318 203 326 299 330 340 334 321 325 321 314 310 306 301 297 294 289 284 278 272 264 255 246 237 231
211 214 171 198 180 147 105 61 81 75 73 100 97 115 70 61 56 26 357 4 349 24 360 65 309 13 188 182 243 316 336 327 334 331 325 328 326 322 320 316 316 309 300 293 287 283 279 271 265 257 247 232 220 211
192 166 191 172 129 106 81 64 58 92 75 94 116 103 99 97 62 63 66 85 80 99 91 43 61 41 350 7 243 296 319 327 313 322 327 325 324 319 316 314 310 307 299 293 284 280 278 269 258 248 231 216 208 197
170 168 177 180 126 78 90 76 74 93 96 116 95 84 87 85 81 49 56 66 75 55 47 43 72 252 235 285 301 301 310 320 324 318 324 322 332 329 320 315 309 303 295 289 283 275 263 254 239 230 212 201 194 187
126 160 180 184 147 70 89 97 75 90 118 78 135 61 102 57 36 25 26 26 62 38 45 13 336 329 313 303 301 305 309 307 312 302 306 316 331 332 329 324 315 301 290 287 287 261 225 217 196 190 193 186 180 172
147 149 148 155 96 89 79 62 101 115 93 113 122 61 50 38 19 27 28 42 56 18 344 326 324 330 334 330 329 331 327 323 325 321 329 343 358 17 23 19 12 21 39 67 92 109 122 138 151 156 155 152 153 151
151 152 136 102 106 61 71 75 82 49 99 130 103 62 41 43 46 37 72 63 67 355 348 339 328 310 329 333 347 0 12 24 29 31 37 40 48 55 61 63 68 70 67 68 78 92 102 113 125 131 131 132 135 137
134 89 41 46 30 95 57 32 59 73 76 61 73 77 35 12 47 62 78 56 354 356 10 4 2 1 305 346 24 34 46 55 59 68 75 77 76 71 71 70 69 70 71 71 79 87 97 104 110 116 122 126 128 127
121 12 17 8 22 45 39 28 6 52 87 22 98 65 43 23 63 52 49 356 357 1 6 8 14 20 17 20 21 29 44 62 73 73 80 77 76 76 72 69 69 71 79 90 88 89 90 97 103 109 113 115 118 118
69 2 44 330 354 65 312 67 34 32 45 67 39 281 69 85 57 53 22 338 343 347 358 3 7 15 20 29 20 35 63 73 80 78 75 72 68 65 66 68 72 67 68 72 80 89 96 100 103 107 108 109 111 118
65 354 33 36 64 96 68 46 45 59 57 64 347 28 61 71 38 4 341 345 349 350 359 12 18 22 38 60 68 66 73 83 91 85 72 60 57 57 58 61 64 65 69 75 79 82 85 89 93 98 102 108 110 109
87 42 68 354 47 38 103 55 41 46 330 331 305 44 81 87 215 334 331 345 354 4 26 42 43 58 72 76 82 85 90 92 85 67 55 49 52 56 61 65 69 75 77 80 81 83 88 93 97 99 101 103 106 112
49 29 61 30 43 49 51 79 275 311 316 319 77 91 109 63 3 29 31 35 38 39 48 72 73 68 70 73 70 63 63 62 58 56 49 42 46 53 62 69 75 83 90 91 84 86 94 102 102 103 105 107 111 113
23 32 88 63 56 31 6 30 47 83 94 90 93 102 90 82 68 62 56 60 63 59 59 63 66 67 67 59 55 52 50 49 51 50 50 40 37 42 46 53 62 71 79 83 82 79 82 87 91 97 102 106 111 115
39 50 58 59 83 119 101 91 86 85 88 93 101 100 115 116 69 48 44 44 48 53 59 64 68 65 60 56 44 39 37 33 36 36 33 31 28 30 33 36 44 60 71 73 68 65 66 69 76 81 85 91 99 105
54 58 111 95 180 195 270 238 87 90 71 64 54 63 72 76 65 51 25 32 36 42 44 43 41 47 45 37 32 28 24 21 24 25 21 20 22 23 24 27 29 31 32 38 43 44 42 39 37 35 27 260 237 246
54 45 63 104 107 130 74 107 74 87 62 65 54 50 56 64 79 28 16 20 24 25 27 30 30 28 29 25 17 17 17 18 16 10 4 1 360 360 1 357 355 353 347 340 333 322 316 312 307 301 292 282 273 266
Wind_Speed_850mb
34 34 34 36 39 43 46 47 50 52 55 58 59 57 61 72 77 82 86 77 83 46 35 43 54 31 11 26 9 12 14 9 12 15 13 9 10 15 6 10 19 26 22 18 12 22 41 23 14 39 18 24 15 27
37 35 33 34 38 42 47 51 53 56 58 64 70 72 74 75 80 82 84 83 86 47 22 54 51 56 56 55 41 44 3 13 22 8 9 6 8 7 14 25 7 15 19 19 29 28 10 34 27 65 41 36 28 34
41 38 36 35 37 40 37 41 46 54 60 67 76 84 91 87 84 88 97 76 74 61 47 53 55 59 64 58 37 22 11 20 17 17 7 5 10 13 15 28 8 9 9 18 14 45 35 59 53 35 34 63 55 54
42 39 37 36 38 40 37 39 44 47 55 63 67 70 78 89 89 91 103 90 85 35 12 18 59 81 78 70 73 64 41 22 14 22 7 8 9 17 12 16 26 18 20 20 22 47 21 30 45 65 57 50 48 50
44 39 38 35 34 36 38 43 43 50 49 45 51 53 59 72 81 88 97 100 102 66 8 12 42 54 60 75 78 73 65 57 31 10 6 5 4 3 3 1 16 14 16 21 28 38 15 34 62 59 51 52 63 74
40 39 36 33 34 35 41 38 42 45 42 31 25 37 55 62 70 74 71 102 99 96 26 8 15 45 71 76 74 71 64 50 44 18 14 15 18 12 7 6 13 42 56 58 25 58 60 31 17 40 59 60 65 60
39 35 33 33 33 35 33 38 37 34 31 28 27 28 41 53 65 77 11 30 106 100 28 5 5 15 42 52 53 54 64 40 41 15 10 6 7 14 5 12 12 36 37 37 53 60 56 46 36 48 56 55 47 44
34 31 31 31 29 30 31 25 24 20 21 23 20 21 18 24 51 43 33 26 91 85 25 9 5 10 36 19 13 29 27 35 22 24 8 3 1 11 14 13 66 78 78 79 73 71 68 65 66 64 68 71 69 68
31 32 31 30 27 26 24 24 22 17 19 22 22 21 21 22 24 34 64 31 72 28 10 6 13 10 30 11 16 23 22 10 18 13 11 15 9 12 15 22 55 62 40 42 54 67 71 78 85 67 64 63 63 68
31 30 31 30 27 29 25 30 27 25 21 21 21 9 8 8 26 39 34 32 30 19 11 5 15 6 26 11 5 9 13 6 7 9 12 9 13 36 51 60 70 81 91 69 61 52 59 72 82 85 95 97 88 91
27 30 30 28 29 28 29 24 17 15 7 4 7 7 17 10 42 37 9 10 9 8 21 16 15 11 25 11 8 13 6 7 8 10 13 10 6 22 78 83 85 88 88 83 74 80 79 85 80 80 84 94 99 94
29 28 28 29 29 25 22 19 17 9 2 3 11 15 5 7 4 6 8 8 8 11 9 14 16 20 25 18 7 8 9 4 11 8 8 5 12 66 78 79 80 84 90 86 62 71 89 97 96 87 87 93 100 96
16 24 31 31 31 28 29 30 20 14 11 12 6 5 4 4 5 9 9 2 6 3 17 20 7 24 14 16 5 7 11 12 9 7 10 11 22 20 33 49 59 57 62 70 70 60 72 88 95 97 103 104 93 90
19 18 19 27 34 37 35 32 25 22 10 8 5 8 8 5 6 3 6 3 6 10 9 9 6 7 9 6 7 11 6 9 9 10 15 16 15 22 26 33 43 54 54 59 61 59 65 74 82 82 84 82 76 72
20 22 31 28 30 34 32 29 34 33 19 7 2 8 2 1 6 7 7 4 20 13 7 5 8 6 4 8 7 8 8 9 11 15 16 14 30 33 33 35 39 47 50 55 56 57 58 60 67 73 66 66 60 61
10 23 21 17 19 27 14 17 36 22 11 9 14 4 7 5 6 12 19 8 20 20 8 7 6 8 8 8 7 14 15 15 9 3 19 36 37 37 36 35 37 42 46 50 51 50 53 53 54 60 59 56 57 58
25 13 13 25 24 12 22 20 9 14 11 9 4 14 9 12 4 2 9 17 22 14 3 4 10 11 2 6 6 1 9 2 11 28 30 30 36 39 40 40 38 38 42 42 44 45 47 47 48 49 49 46 46 48
24 14 29 34 14 12 17 12 12 11 9 9 6 6 20 13 5 9 12 18 9 6 8 2 6 3 5 13 4 4 6 26 20 22 29 31 35 34 34 39 38 36 38 38 39 41 40 38 39 41 40 38 39 41
21 30 31 25 13 6 8 9 9 8 9 11 17 14 13 17 24 15 7 10 15 11 9 7 10 3 3 1 4 15 24 22 27 40 34 25 31 32 33 33 35 35 33 33 32 33 32 31 35 33 30 33 37 41
24 37 37 37 4 7 10 10 9 15 5 8 9 9 10 9 7 21 29 20 14 10 11 8 2 2 6 16 22 29 30 26 29 31 26 20 27 28 28 29 30 30 27 25 22 21 20 21 24 26 27 30 37 44
19 40 49 30 8 11 12 9 12 11 16 10 17 5 10 14 12 16 17 18 16 9 5 7 13 21 20 21 19 22 20 17 17 15 23 26 21 22 22 20 18 18 16 17 12 7 11 12 13 20 26 30 35 40
32 41 26 15 7 9 13 13 15 16 11 13 8 6 7 4 5 11 11 21 9 9 11 18 25 25 25 17 14 13 12 9 10 10 10 12 10 11 16 16 11 10 9 7 3 5 6 8 12 19 28 35 39 42
37 27 10 6 8 11 5 6 7 7 7 3 7 5 5 4 5 7 6 8 6 19 18 19 19 12 18 15 9 9 7 6 8 9 12 13 15 18 19 20 18 19 22 23 19 17 20 22 26 31 37 40 45 50
24 8 14 13 20 3 5 9 8 8 8 5 5 5 4 3 3 5 5 4 12 23 22 19 17 8 6 8 13 15 12 10 12 12 14 16 21 26 26 28 28 30 30 28 26 29 31 32 35 41 47 52 55 59
8 21 16 13 20 10 11 7 9 8 5 4 6 3 2 6 4 5 4 7 19 27 28 22 14 14 10 6 10 14 13 11 15 18 20 21 23 24 27 28 30 31 27 28 32 35 37 36 38 40 44 47 50 53
16 14 10 3 8 8 2 6 6 3 3 6 3 5 2 5 6 5 3 17 19 22 27 24 21 14 11 10 10 10 11 12 15 18 21 18 17 16 19 20 23 29 31 32 32 32 33 34 36 37 42 42 42 42
12 8 12 16 5 8 9 8 5 5 8 5 4 4 4 7 3 3 11 17 18 21 18 16 16 13 11 11 13 15 19 18 21 25 22 19 18 19 19 20 23 26 25 26 26 28 30 31 31 32 33 34 34 35
9 10 8 14 14 15 7 6 7 4 3 5 2 8 6 3 4 8 8 18 16 12 11 11 16 15 14 17 20 20 18 18 18 17 16 20 21 20 20 20 20 20 20 21 24 24 24 24 24 26 26 27 28 28
12 8 6 10 9 12 7 3 2 4 4 1 3 5 5 6 6 6 9 12 12 11 8 6 7 13 18 17 13 13 14 13 12 15 16 17 16 18 16 16 15 15 14 14 15 17 18 18 20 20 20 19 19 19
9 11 9 6 9 10 14 12 9 13 19 19 17 30 28 26 32 30 25 18 15 14 12 11 10 9 10 12 17 19 20 19 17 17 16 16 16 14 13 12 11 11 12 12 12 14 16 15 15 14 14 13 13 12
10 11 13 13 7 14 31 41 45 44 42 41 39 28 15 11 23 41 43 35 26 18 14 12 11 14 15 14 14 14 16 19 17 17 17 17 16 14 12 11 9 8 8 9 9 10 10 9 9 8 7 6 5 4
14 11 7 6 2 13 5 2 4 7 6 6 8 7 7 6 8 11 32 35 32 29 22 20 19 11 11 15 18 19 16 15 13 13 13 13 14 13 10 9 8 7 6 5 5 5 5 4 4 3 1 1 2 3
8 10 10 8 5 3 2 3 4 5 8 6 7 7 8 7 7 12 19 32 36 36 32 18 18 22 12 10 15 16 16 14 12 12 12 11 11 11 11 10 9 9 9 8 8 7 7 7 8 9 9 9 11 11
Wind_Direction_850mb
263 269 271 273 266 263 263 263 263 263 261 259 260 259 247 240 233 227 227 226 210 224 230 213 219 198 165 183 178 143 123 179 175 196 189 166 203 208 179 178 167 176 175 202 210 219 254 145 134 201 235 224 245 243
257 264 269 274 276 270 262 260 262 261 260 258 258 257 253 245 236 227 224 226 213 219 220 221 222 230 232 228 217 186 225 150 171 184 185 166 212 186 203 233 153 202 197 186 189 217 216 188 216 220 237 261 256 243
250 255 262 270 278 280 272 269 270 267 266 267 265 259 252 248 238 226 221 220 211 216 231 227 222 223 223 224 230 190 216 193 190 189 153 199 229 172 204 228 140 251 188 217 175 242 243 245 237 249 249 246 253 258
248 246 258 264 273 280 277 282 284 284 277 272 268 263 249 238 233 226 219 215 207 199 227 224 226 224 233 232 231 230 226 206 215 209 216 208 207 193 220 241 203 202 150 221 246 254 279 269 252 248 250 257 262 260
242 246 259 265 270 280 283 281 282 288 280 280 265 253 242 232 231 224 222 217 215 203 175 200 217 220 225 225 226 228 233 226 220 237 240 240 239 179 201 68 223 192 195 204 233 230 238 263 255 258 266 267 261 261
236 245 256 263 270 279 284 286 283 291 288 275 276 260 236 228 218 214 217 217 213 216 214 196 220 210 212 214 215 215 217 216 215 223 248 234 233 191 229 227 235 238 231 237 247 255 264 272 282 274 261 266 272 272
232 242 252 260 268 278 283 287 288 287 290 280 284 283 229 217 210 208 212 196 206 204 200 153 201 185 198 201 200 205 212 211 216 226 222 198 203 212 226 248 281 292 297 277 272 275 270 265 263 269 270 279 279 278
232 244 252 263 271 277 287 283 295 291 283 279 281 290 250 236 211 201 165 153 183 187 203 174 128 146 162 157 172 188 189 206 220 227 259 200 341 210 247 234 254 259 262 269 275 278 281 281 274 271 271 272 273 273
236 244 253 262 262 272 281 272 276 279 294 302 297 298 284 226 227 215 218 190 185 190 164 143 146 177 166 144 147 167 176 183 192 207 207 184 215 221 209 215 238 248 240 251 267 274 274 274 274 281 276 270 269 269
240 246 253 253 258 263 268 274 269 272 279 294 295 278 264 210 227 166 151 156 180 209 156 117 133 153 168 139 155 134 179 202 187 229 148 225 230 236 241 250 258 264 271 271 259 265 267 267 268 270 269 271 272 275
252 253 250 248 257 253 276 266 288 271 267 246 238 248 271 232 164 173 181 155 160 187 160 150 164 134 192 168 158 189 170 166 196 243 162 203 244 228 240 241 247 253 260 263 259 261 264 269 270 271 273 276 275 275
253 248 247 252 241 253 254 259 259 245 150 324 306 295 254 260 210 193 152 135 154 179 172 163 181 159 160 154 111 187 172 172 213 134 148 218 241 232 238 239 244 247 254 262 263 260 261 261 262 264 268 268 271 273
256 247 247 248 243 233 243 258 221 264 276 240 254 283 357 298 280 208 153 178 151 200 175 161 175 145 133 168 108 176 177 200 124 157 204 223 234 225 239 243 246 252 264 272 279 274 267 267 267 266 264 264 266 269
252 261 236 242 240 248 251 249 238 210 174 205 149 259 183 251 233 11 356 11 5 339 349 112 127 149 138 146 149 165 168 132 156 164 219 231 7 317 292 279 278 276 278 285 288 289 282 277 272 269 262 261 260 258
272 252 243 236 246 248 246 247 230 218 183 138 104 227 165 257 33 353 15 17 359 327 325 139 88 101 166 162 176 118 157 197 192 209 224 7 339 326 313 303 298 293 290 290 293 293 287 281 276 273 266 257 253 249
234 201 221 236 225 246 293 159 175 163 87 75 48 48 348 83 344 15 7 356 1 345 305 248 172 157 207 158 125 204 150 204 223 329 330 337 328 321 322 315 304 302 303 299 297 294 290 283 277 273 267 258 250 244
192 204 190 197 209 148 139 156 110 63 78 73 51 46 84 76 101 45 0 343 345 355 51 320 197 185 67 152 215 318 203 326 299 330 340 334 321 325 321 314 310 306 301 297 294 289 284 278 272 264 255 246 237 231
211 214 171 198 180 147 105 61 81 75 73 100 97 115 70 61 56 26 357 4 349 24 360 65 309 13 188 182 243 316 336 327 334 331 325 328 326 322 320 316 316 309 300 293 287 283 279 271 265 257 247 232 220 211
192 166 191 172 129 106 81 64 58 92 75 94 116 103 99 97 62 63 66 85 80 99 91 43 61 41 350 7 243 296 319 327 313 322 327 325 324 319 316 314 310 307 299 293 284 280 278 269 258 248 231 216 208 197
170 168 177 180 126 78 90 76 74 93 96 116 95 84 87 85 81 49 56 66 75 55 47 43 72 252 235 285 301 301 310 320 324 318 324 322 332 329 320 315 309 303 295 289 283 275 263 254 239 230 212 201 194 187
126 160 180 184 147 70 89 97 75 90 118 78 135 61 102 57 36 25 26 26 62 38 45 13 336 329 313 303 301 305 309 307 312 302 306 316 331 332 329 324 315 301 290 287 287 261 225 217 196 190 193 186 180 172
147 149 148 155 96 89 79 62 101 115 93 113 122 61 50 38 19 27 28 42 56 18 344 326 324 330 334 330 329 331 327 323 325 321 329 343 358 17 23 19 12 21 39 67 92 109 122 138 151 156 155 152 153 151
151 152 136 102 106 61 71 75 82 49 99 130 103 62 41 43 46 37 72 63 67 355 348 339 328 310 329 333 347 0 12 24 29 31 37 40 48 55 61 63 68 70 67 68 78 92 102 113 125 131 131 132 135 137
134 89 41 46 30 95 57 32 59 73 76 61 73 77 35 12 47 62 78 56 354 356 10 4 2 1 305 346 24 34 46 55 59 68 75 77 76 71 71 70 69 70 71 71 79 87 97 104 110 116 122 126 128 127
121 12 17 8 22 45 39 28 6 52 87 22 98 65 43 23 63 52 49 356 357 1 6 8 14 20 17 20 21 29 44 62 73 73 80 77 76 76 72 69 69 71 79 90 88 89 90 97 103 109 113 115 118 118
69 2 44 330 354 65 312 67 34 32 45 67 39 281 69 85 57 53 22 338 343 347 358 3 7 15 20 29 20 35 63 73 80 78 75 72 68 65 66 68 72 67 68 72 80 89 96 100 103 107 108 109 111 118
65 354 33 36 64 96 68 46 45 59 57 64 347 28 61 71 38 4 341 345 349 350 359 12 18 22 38 60 68 66 73 83 91 85 72 60 57 57 58 61 64 65 69 75 79 82 85 89 93 98 102 108 110 109
87 42 68 354 47 38 103 55 41 46 330 331 305 44 81 87 215 334 331 345 354 4 26 42 43 58 72 76 82 85 90 92 85 67 55 49 52 56 61 65 69 75 77 80 81 83 88 93 97 99 101 103 106 112
49 29 61 30 43 49 51 79 275 311 316 319 77 91 109 63 3 29 31 35 38 39 48 72 73 68 70 73 70 63 63 62 58 56 49 42 46 53 62 69 75 83 90 91 84 86 94 102 102 103 105 107 111 113
23 32 88 63 56 31 6 30 47 83 94 90 93 102 90 82 68 62 56 60 63 59 59 63 66 67 67 59 55 52 50 49 51 50 50 40 37 42 46 53 62 71 79 83 82 79 82 87 91 97 102 106 111 115
39 50 58 59 83 119 101 91 86 85 88 93 101 100 115 116 69 48 44 44 48 53 59 64 68 65 60 56 44 39 37 33 36 36 33 31 28 30 33 36 44 60 71 73 68 65 66 69 76 81 85 91 99 105
54 58 111 95 180 195 270 238 87 90 71 64 54 63 72 76 65 51 25 32 36 42 44 43 41 47 45 37 32 28 24 21 24 25 21 20 22 23 24 27 29 31 32 38 43 44 42 39 37 35 27 260 237 246
54 45 63 104 107 130 74 107 74 87 62 65 54 50 56 64 79 28 16 20 24 25 27 30 30 28 29 25 17 17 17 18 16 10 4 1 360 360 1 357 355 353 347 340 333 322 316 312 307 301 292 282 273 266